iso_date,epoch_date,Year,Hour,Min,DOY,POS_DOY,Lat,Lon,BP,Ts,Ta,has_bp,has_ts,has_ta,BuoyID,Buoy_Type,Buoy_Owner,Logistics,Hemisphere
2020-09-07T15:01:00Z,1599490860,2020,15,1,251.6257,251.6257,88.6868,111.51,1007.2,-2.6,-3.5,yes,yes,yes,300234066080130,unknown,unknown,unknown,North
2020-09-07T16:01:03Z,1599494463,2020,16,1,251.6674,251.6674,88.686,111.5566,1007.3,-3.2,-4.6,yes,yes,yes,300234066080130,unknown,unknown,unknown,North
2020-09-07T17:00:57Z,1599498058,2020,17,1,251.709,251.709,88.685,111.6162,1007.6,-3.7,-5.1,yes,yes,yes,300234066080130,unknown,unknown,unknown,North
2020-09-07T18:01:00Z,1599501660,2020,18,1,251.7507,251.7507,88.684,111.7046,1008.2,-4.0,-5.2,yes,yes,yes,300234066080130,unknown,unknown,unknown,North
2020-09-07T19:01:03Z,1599505263,2020,19,1,251.7924,251.7924,88.6824,111.8066,1008.1,-4.2,-5.5,yes,yes,yes,300234066080130,unknown,unknown,unknown,North
2020-09-07T20:00:57Z,1599508858,2020,20,1,251.834,251.834,88.6804,111.9022,1008.3,-4.5,-5.2,yes,yes,yes,300234066080130,unknown,unknown,unknown,North
2020-09-07T21:01:00Z,1599512460,2020,21,1,251.8757,251.8757,88.678,111.9802,1008.6,-4.5,-5.1,yes,yes,yes,300234066080130,unknown,unknown,unknown,North
2020-09-07T22:01:03Z,1599516063,2020,22,1,251.9174,251.9174,88.676,112.032,1008.8,-4.5,-4.9,yes,yes,yes,300234066080130,unknown,unknown,unknown,North
2020-09-07T23:00:57Z,1599519658,2020,23,1,251.959,251.959,88.6742,112.0498,1008.8,-4.5,-4.8,yes,yes,yes,300234066080130,unknown,unknown,unknown,North
2020-09-08T00:01:00Z,1599523260,2020,0,1,252.0007,252.0007,88.673,112.0504,1008.6,-4.4,-4.7,yes,yes,yes,300234066080130,unknown,unknown,unknown,North
2020-09-08T01:01:03Z,1599526863,2020,1,1,252.0424,252.0424,88.6728,112.0624,1008.8,-4.3,-4.4,yes,yes,yes,300234066080130,unknown,unknown,unknown,North
2020-09-08T02:00:57Z,1599530458,2020,2,1,252.084,252.084,88.6734,112.0904,1008.5,-4.1,-4.3,yes,yes,yes,300234066080130,unknown,unknown,unknown,North
2020-09-08T03:01:00Z,1599534060,2020,3,1,252.1257,252.1257,88.6742,112.1482,1008.4,-4.1,-4.3,yes,yes,yes,300234066080130,unknown,unknown,unknown,North
2020-09-08T04:01:03Z,1599537663,2020,4,1,252.1674,252.1674,88.6754,112.2202,1008.2,-4.1,-4.3,yes,yes,yes,300234066080130,unknown,unknown,unknown,North
2020-09-08T05:00:57Z,1599541258,2020,5,1,252.209,252.209,88.6762,112.3292,1008.2,-4.0,-4.4,yes,yes,yes,300234066080130,unknown,unknown,unknown,North
2020-09-08T06:01:00Z,1599544860,2020,6,1,252.2507,252.2507,88.6764,112.4776,1007.9,-4.1,-4.6,yes,yes,yes,300234066080130,unknown,unknown,unknown,North
2020-09-08T07:01:03Z,1599548463,2020,7,1,252.2924,252.2924,88.6762,112.627,1007.7,-4.0,-4.3,yes,yes,yes,300234066080130,unknown,unknown,unknown,North
2020-09-08T08:00:57Z,1599552058,2020,8,1,252.334,252.334,88.6758,112.7564,1007.6,-3.8,-3.7,yes,yes,yes,300234066080130,unknown,unknown,unknown,North
2020-09-08T09:01:00Z,1599555660,2020,9,1,252.3757,252.3757,88.6754,112.851,1007.4,-3.6,-3.5,yes,yes,yes,300234066080130,unknown,unknown,unknown,North
2020-09-08T10:01:03Z,1599559263,2020,10,1,252.4174,252.4174,88.6758,112.9036,1007.2,-3.4,-3.3,yes,yes,yes,300234066080130,unknown,unknown,unknown,North
2020-09-08T11:00:57Z,1599562858,2020,11,1,252.459,252.459,88.6774,112.9286,1006.6,-3.5,-3.5,yes,yes,yes,300234066080130,unknown,unknown,unknown,North
2020-09-08T12:01:00Z,1599566460,2020,12,1,252.5007,252.5007,88.6798,112.9346,1006.5,-3.4,-3.3,yes,yes,yes,300234066080130,unknown,unknown,unknown,North
2020-09-08T13:01:03Z,1599570063,2020,13,1,252.5424,252.5424,88.683,112.9392,1006.2,-3.3,-3.1,yes,yes,yes,300234066080130,unknown,unknown,unknown,North
2020-09-08T14:00:57Z,1599573658,2020,14,1,252.584,252.584,88.6868,112.9684,1005.8,-3.1,-2.9,yes,yes,yes,300234066080130,unknown,unknown,unknown,North
2020-09-08T15:01:00Z,1599577260,2020,15,1,252.6257,252.6257,88.6912,113.0362,1005.6,-3.0,-2.9,yes,yes,yes,300234066080130,unknown,unknown,unknown,North
2020-09-08T16:01:03Z,1599580863,2020,16,1,252.6674,252.6674,88.6952,113.152,1005.0,-3.0,-2.9,yes,yes,yes,300234066080130,unknown,unknown,unknown,North
2020-09-08T17:00:57Z,1599584458,2020,17,1,252.709,252.709,88.6992,113.2988,1004.6,-2.9,-2.9,yes,yes,yes,300234066080130,unknown,unknown,unknown,North
2020-09-08T18:01:00Z,1599588060,2020,18,1,252.7507,252.7507,88.7024,113.4636,1004.4,-2.8,-2.7,yes,yes,yes,300234066080130,unknown,unknown,unknown,North
2020-09-08T19:01:03Z,1599591663,2020,19,1,252.7924,252.7924,88.7046,113.6,1003.9,-2.8,-2.9,yes,yes,yes,300234066080130,unknown,unknown,unknown,North
2020-09-08T20:00:57Z,1599595258,2020,20,1,252.834,252.834,88.7064,113.6784,1003.6,-2.8,-3.0,yes,yes,yes,300234066080130,unknown,unknown,unknown,North
2020-09-08T21:01:00Z,1599598860,2020,21,1,252.8757,252.8757,88.7078,113.6962,1003.6,-2.7,-2.9,yes,yes,yes,300234066080130,unknown,unknown,unknown,North
2020-09-08T22:01:03Z,1599602463,2020,22,1,252.9174,252.9174,88.7094,113.6662,1003.2,-2.7,-2.9,yes,yes,yes,300234066080130,unknown,unknown,unknown,North
2020-09-08T23:00:57Z,1599606058,2020,23,1,252.959,252.959,88.7112,113.5772,1003.1,-2.6,-2.8,yes,yes,yes,300234066080130,unknown,unknown,unknown,North
2020-09-09T00:01:00Z,1599609660,2020,0,1,253.0007,253.0007,88.7136,113.4504,1003.0,-2.4,-2.6,yes,yes,yes,300234066080130,unknown,unknown,unknown,North
2020-09-09T01:01:03Z,1599613263,2020,1,1,253.0424,253.0424,88.717,113.3092,1002.7,-2.3,-2.5,yes,yes,yes,300234066080130,unknown,unknown,unknown,North
2020-09-09T02:00:57Z,1599616858,2020,2,1,253.084,253.084,88.7208,113.17,1002.3,-2.2,-2.8,yes,yes,yes,300234066080130,unknown,unknown,unknown,North
2020-09-09T03:01:00Z,1599620460,2020,3,1,253.1257,253.1257,88.7246,113.0394,1002.0,-2.3,-2.8,yes,yes,yes,300234066080130,unknown,unknown,unknown,North
2020-09-09T04:01:03Z,1599624063,2020,4,1,253.1674,253.1674,88.728,112.911,1001.8,-2.4,-2.8,yes,yes,yes,300234066080130,unknown,unknown,unknown,North
2020-09-09T05:00:57Z,1599627658,2020,5,1,253.209,253.209,88.7304,112.7884,1001.8,-2.4,-2.8,yes,yes,yes,300234066080130,unknown,unknown,unknown,North
2020-09-09T06:01:00Z,1599631260,2020,6,1,253.2507,253.2507,88.7314,112.652,1001.9,-2.4,-2.8,yes,yes,yes,300234066080130,unknown,unknown,unknown,North
2020-09-09T07:02:03Z,1599634924,2020,7,2,253.2931,253.2931,88.731,112.484,1002.0,-2.4,-2.9,yes,yes,yes,300234066080130,unknown,unknown,unknown,North
2020-09-09T08:01:58Z,1599638518,2020,8,2,253.3347,253.3347,88.7296,112.2724,1002.1,-2.5,-3.0,yes,yes,yes,300234066080130,unknown,unknown,unknown,North
2020-09-09T09:01:00Z,1599642060,2020,9,1,253.3757,253.3757,88.7276,112.022,1002.2,-2.5,-3.2,yes,yes,yes,300234066080130,unknown,unknown,unknown,North
2020-09-09T10:02:03Z,1599645724,2020,10,2,253.4181,253.4181,88.7258,111.7076,1002.6,-2.8,-3.4,yes,yes,yes,300234066080130,unknown,unknown,unknown,North
2020-09-09T11:01:58Z,1599649318,2020,11,2,253.4597,253.4597,88.7244,111.3518,1003.5,-2.7,-3.1,yes,yes,yes,300234066080130,unknown,unknown,unknown,North
2020-09-09T12:01:00Z,1599652860,2020,12,1,253.5007,253.5007,88.7236,110.987,1003.8,-2.7,-3.6,yes,yes,yes,300234066080130,unknown,unknown,unknown,North
2020-09-09T13:01:03Z,1599656463,2020,13,1,253.5424,253.5424,88.7236,110.632,1004.3,-3.1,-4.0,yes,yes,yes,300234066080130,unknown,unknown,unknown,North
2020-09-09T14:00:57Z,1599660058,2020,14,1,253.584,253.584,88.724,110.3284,1004.5,-3.3,-4.8,yes,yes,yes,300234066080130,unknown,unknown,unknown,North
2020-09-09T15:01:00Z,1599663660,2020,15,1,253.6257,253.6257,88.7244,110.0984,1004.8,-4.1,-5.6,yes,yes,yes,300234066080130,unknown,unknown,unknown,North
2020-09-09T16:01:03Z,1599667263,2020,16,1,253.6674,253.6674,88.7242,109.9574,1005.2,-4.1,-5.8,yes,yes,yes,300234066080130,unknown,unknown,unknown,North
2020-09-09T17:00:57Z,1599670858,2020,17,1,253.709,253.709,88.723,109.9196,1005.5,-5.2,-6.9,yes,yes,yes,300234066080130,unknown,unknown,unknown,North
2020-09-09T18:01:00Z,1599674460,2020,18,1,253.7507,253.7507,88.7214,109.8822,1006.5,-5.1,-5.8,yes,yes,yes,300234066080130,unknown,unknown,unknown,North
2020-09-09T19:01:03Z,1599678063,2020,19,1,253.7924,253.7924,88.7192,109.803,1007.6,-4.3,-4.0,yes,yes,yes,300234066080130,unknown,unknown,unknown,North
2020-09-09T20:00:57Z,1599681658,2020,20,1,253.834,253.834,88.7164,109.6698,1008.3,-3.4,-2.8,yes,yes,yes,300234066080130,unknown,unknown,unknown,North
2020-09-09T21:01:00Z,1599685260,2020,21,1,253.8757,253.8757,88.7138,109.4624,1008.3,-3.4,-3.6,yes,yes,yes,300234066080130,unknown,unknown,unknown,North
2020-09-09T22:01:03Z,1599688863,2020,22,1,253.9174,253.9174,88.7116,109.2072,1008.8,-3.2,-3.5,yes,yes,yes,300234066080130,unknown,unknown,unknown,North
2020-09-09T23:00:57Z,1599692458,2020,23,1,253.959,253.959,88.7102,108.9066,1009.0,-3.4,-4.3,yes,yes,yes,300234066080130,unknown,unknown,unknown,North
2020-09-10T00:01:00Z,1599696060,2020,0,1,254.0007,254.0007,88.7096,108.5872,1009.3,-3.5,-4.1,yes,yes,yes,300234066080130,unknown,unknown,unknown,North
2020-09-10T01:01:03Z,1599699663,2020,1,1,254.0424,254.0424,88.7098,108.2804,1009.8,-3.8,-4.7,yes,yes,yes,300234066080130,unknown,unknown,unknown,North
2020-09-10T02:00:57Z,1599703258,2020,2,1,254.084,254.084,88.7104,108.0348,1010.3,-3.8,-4.5,yes,yes,yes,300234066080130,unknown,unknown,unknown,North
2020-09-10T03:01:00Z,1599706860,2020,3,1,254.1257,254.1257,88.7116,107.8402,1010.5,-3.7,-4.7,yes,yes,yes,300234066080130,unknown,unknown,unknown,North
2020-09-10T04:01:03Z,1599710463,2020,4,1,254.1674,254.1674,88.7126,107.6936,1011.0,-3.9,-4.9,yes,yes,yes,300234066080130,unknown,unknown,unknown,North
2020-09-10T05:00:57Z,1599714058,2020,5,1,254.209,254.209,88.7132,107.593,1011.0,-3.9,-4.9,yes,yes,yes,300234066080130,unknown,unknown,unknown,North
2020-09-10T06:01:00Z,1599717660,2020,6,1,254.2507,254.2507,88.713,107.5064,1011.4,-3.9,-5.4,yes,yes,yes,300234066080130,unknown,unknown,unknown,North
2020-09-10T07:01:03Z,1599721263,2020,7,1,254.2924,254.2924,88.7122,107.4174,1011.6,-4.2,-5.5,yes,yes,yes,300234066080130,unknown,unknown,unknown,North
2020-09-10T08:00:57Z,1599724858,2020,8,1,254.334,254.334,88.7108,107.3212,1012.2,-4.0,-5.2,yes,yes,yes,300234066080130,unknown,unknown,unknown,North
2020-09-10T09:01:00Z,1599728460,2020,9,1,254.3757,254.3757,88.7094,107.2112,1012.5,-4.2,-5.7,yes,yes,yes,300234066080130,unknown,unknown,unknown,North
2020-09-10T10:01:03Z,1599732063,2020,10,1,254.4174,254.4174,88.708,107.0814,1012.8,-4.4,-7.1,yes,yes,yes,300234066080130,unknown,unknown,unknown,North
2020-09-10T11:00:57Z,1599735658,2020,11,1,254.459,254.459,88.7072,106.9384,1012.9,-5.1,-6.8,yes,yes,yes,300234066080130,unknown,unknown,unknown,North
2020-09-10T12:01:00Z,1599739260,2020,12,1,254.5007,254.5007,88.7074,106.7804,1013.1,-5.9,-8.5,yes,yes,yes,300234066080130,unknown,unknown,unknown,North
2020-09-10T13:01:03Z,1599742863,2020,13,1,254.5424,254.5424,88.708,106.6412,1013.6,-6.3,-8.8,yes,yes,yes,300234066080130,unknown,unknown,unknown,North
2020-09-10T14:00:57Z,1599746458,2020,14,1,254.584,254.584,88.7092,106.502,1013.5,-6.8,-9.2,yes,yes,yes,300234066080130,unknown,unknown,unknown,North
2020-09-10T15:01:00Z,1599750060,2020,15,1,254.6257,254.6257,88.7108,106.4054,1013.6,-7.1,-9.3,yes,yes,yes,300234066080130,unknown,unknown,unknown,North
2020-09-10T16:01:03Z,1599753663,2020,16,1,254.6674,254.6674,88.7126,106.324,1013.7,-7.5,-9.4,yes,yes,yes,300234066080130,unknown,unknown,unknown,North
2020-09-10T17:00:57Z,1599757258,2020,17,1,254.709,254.709,88.7142,106.2662,1013.7,-7.9,-9.9,yes,yes,yes,300234066080130,unknown,unknown,unknown,North
2020-09-10T18:01:00Z,1599760860,2020,18,1,254.7507,254.7507,88.7152,106.2138,1014.0,-8.3,-10.4,yes,yes,yes,300234066080130,unknown,unknown,unknown,North
2020-09-10T19:01:03Z,1599764463,2020,19,1,254.7924,254.7924,88.7156,106.1522,1014.6,-8.1,-10.3,yes,yes,yes,300234066080130,unknown,unknown,unknown,North
2020-09-10T20:00:57Z,1599768058,2020,20,1,254.834,254.834,88.7154,106.068,1014.1,-8.7,-10.4,yes,yes,yes,300234066080130,unknown,unknown,unknown,North
2020-09-10T21:01:00Z,1599771660,2020,21,1,254.8757,254.8757,88.7154,105.948,1014.2,-8.9,-10.1,yes,yes,yes,300234066080130,unknown,unknown,unknown,North
2020-09-10T22:01:03Z,1599775263,2020,22,1,254.9174,254.9174,88.7158,105.7802,1014.4,-9.1,-10.3,yes,yes,yes,300234066080130,unknown,unknown,unknown,North
2020-09-10T23:00:57Z,1599778858,2020,23,1,254.959,254.959,88.7168,105.5824,1014.2,-9.3,-10.3,yes,yes,yes,300234066080130,unknown,unknown,unknown,North
2020-09-11T00:01:00Z,1599782460,2020,0,1,255.0007,255.0007,88.7186,105.3784,1014.5,-9.3,-9.8,yes,yes,yes,300234066080130,unknown,unknown,unknown,North
2020-09-11T01:01:03Z,1599786063,2020,1,1,255.0424,255.0424,88.7216,105.1676,1014.7,-9.1,-9.7,yes,yes,yes,300234066080130,unknown,unknown,unknown,North
2020-09-11T02:00:57Z,1599789658,2020,2,1,255.084,255.084,88.7252,104.9796,1014.3,-9.1,-9.6,yes,yes,yes,300234066080130,unknown,unknown,unknown,North
2020-09-11T03:01:00Z,1599793260,2020,3,1,255.1257,255.1257,88.7294,104.8168,1014.3,-8.6,-9.0,yes,yes,yes,300234066080130,unknown,unknown,unknown,North
2020-09-11T04:01:03Z,1599796863,2020,4,1,255.1674,255.1674,88.733,104.7258,1014.4,-7.8,-8.5,yes,yes,yes,300234066080130,unknown,unknown,unknown,North
2020-09-11T05:00:57Z,1599800458,2020,5,1,255.209,255.209,88.736,104.6524,1014.2,-7.2,-8.6,yes,yes,yes,300234066080130,unknown,unknown,unknown,North
2020-09-11T06:01:00Z,1599804060,2020,6,1,255.2507,255.2507,88.7384,104.5918,1014.0,-6.5,-8.7,yes,yes,yes,300234066080130,unknown,unknown,unknown,North
2020-09-11T07:01:03Z,1599807663,2020,7,1,255.2924,255.2924,88.74,104.5238,1013.9,-6.2,-9.0,yes,yes,yes,300234066080130,unknown,unknown,unknown,North
2020-09-11T08:00:57Z,1599811258,2020,8,1,255.334,255.334,88.741,104.433,1013.4,-6.3,-9.3,yes,yes,yes,300234066080130,unknown,unknown,unknown,North
2020-09-11T09:01:00Z,1599814860,2020,9,1,255.3757,255.3757,88.7416,104.2984,1013.0,-6.5,-9.4,yes,yes,yes,300234066080130,unknown,unknown,unknown,North
2020-09-11T10:01:03Z,1599818463,2020,10,1,255.4174,255.4174,88.7424,104.1284,1013.0,-6.9,-9.6,yes,yes,yes,300234066080130,unknown,unknown,unknown,North
2020-09-11T11:00:57Z,1599822058,2020,11,1,255.459,255.459,88.744,103.928,1013.1,-7.1,-9.4,yes,yes,yes,300234066080130,unknown,unknown,unknown,North
2020-09-11T12:01:00Z,1599825660,2020,12,1,255.5007,255.5007,88.7462,103.7284,1013.2,-7.5,-9.8,yes,yes,yes,300234066080130,unknown,unknown,unknown,North
2020-09-11T13:01:03Z,1599829263,2020,13,1,255.5424,255.5424,88.7494,103.5418,1012.8,-8.2,-10.5,yes,yes,yes,300234066080130,unknown,unknown,unknown,North
2020-09-11T14:00:57Z,1599832858,2020,14,1,255.584,255.584,88.7526,103.3838,1013.2,-8.2,-8.5,yes,yes,yes,300234066080130,unknown,unknown,unknown,North
2020-09-11T15:01:00Z,1599836460,2020,15,1,255.6257,255.6257,88.756,103.2596,1013.4,-7.5,-7.6,yes,yes,yes,300234066080130,unknown,unknown,unknown,North
2020-09-11T16:01:03Z,1599840063,2020,16,1,255.6674,255.6674,88.7588,103.1726,1013.5,-7.0,-6.2,yes,yes,yes,300234066080130,unknown,unknown,unknown,North
2020-09-11T17:00:57Z,1599843658,2020,17,1,255.709,255.709,88.7608,103.1178,1013.4,-6.6,-6.0,yes,yes,yes,300234066080130,unknown,unknown,unknown,North
2020-09-11T18:01:00Z,1599847260,2020,18,1,255.7507,255.7507,88.7618,103.0718,1013.2,-6.1,-5.5,yes,yes,yes,300234066080130,unknown,unknown,unknown,North
2020-09-11T19:01:03Z,1599850863,2020,19,1,255.7924,255.7924,88.7618,103.0194,1012.9,-6.0,-5.6,yes,yes,yes,300234066080130,unknown,unknown,unknown,North
2020-09-11T20:00:57Z,1599854458,2020,20,1,255.834,255.834,88.7612,102.9422,1012.9,-5.7,-5.1,yes,yes,yes,300234066080130,unknown,unknown,unknown,North
2020-09-11T21:01:00Z,1599858060,2020,21,1,255.8757,255.8757,88.7604,102.8224,1012.8,-5.5,-5.2,yes,yes,yes,300234066080130,unknown,unknown,unknown,North
2020-09-11T22:01:03Z,1599861663,2020,22,1,255.9174,255.9174,88.7598,102.6636,1012.7,-5.4,-5.2,yes,yes,yes,300234066080130,unknown,unknown,unknown,North
2020-09-11T23:00:57Z,1599865258,2020,23,1,255.959,255.959,88.76,102.4758,1012.8,-5.1,-4.6,yes,yes,yes,300234066080130,unknown,unknown,unknown,North
2020-09-12T00:01:00Z,1599868860,2020,0,1,256.0007,256.0007,88.7608,102.2678,1012.8,-4.9,-4.6,yes,yes,yes,300234066080130,unknown,unknown,unknown,North
2020-09-12T01:01:03Z,1599872463,2020,1,1,256.0424,256.0424,88.7626,102.0678,1012.6,-4.7,-4.4,yes,yes,yes,300234066080130,unknown,unknown,unknown,North
2020-09-12T02:00:57Z,1599876058,2020,2,1,256.084,256.084,88.7648,101.8922,1012.4,-4.6,-4.6,yes,yes,yes,300234066080130,unknown,unknown,unknown,North
2020-09-12T03:01:00Z,1599879660,2020,3,1,256.1257,256.1257,88.7672,101.751,1012.3,-4.6,-4.2,yes,yes,yes,300234066080130,unknown,unknown,unknown,North
2020-09-12T04:01:03Z,1599883263,2020,4,1,256.1674,256.1674,88.7694,101.6652,1012.3,-4.3,-4.2,yes,yes,yes,300234066080130,unknown,unknown,unknown,North
2020-09-12T05:00:57Z,1599886858,2020,5,1,256.209,256.209,88.771,101.604,1012.3,-4.1,-4.1,yes,yes,yes,300234066080130,unknown,unknown,unknown,North
2020-09-12T06:01:00Z,1599890460,2020,6,1,256.2507,256.2507,88.772,101.5572,1012.5,-3.8,-3.6,yes,yes,yes,300234066080130,unknown,unknown,unknown,North
2020-09-12T07:01:03Z,1599894063,2020,7,1,256.2924,256.2924,88.7722,101.5024,1012.5,-3.6,-3.6,yes,yes,yes,300234066080130,unknown,unknown,unknown,North
2020-09-12T08:00:57Z,1599897658,2020,8,1,256.334,256.334,88.772,101.4282,1012.5,-3.5,-3.7,yes,yes,yes,300234066080130,unknown,unknown,unknown,North
2020-09-12T09:01:00Z,1599901260,2020,9,1,256.3757,256.3757,88.7716,101.3208,1012.5,-3.4,-3.6,yes,yes,yes,300234066080130,unknown,unknown,unknown,North
2020-09-12T10:01:03Z,1599904863,2020,10,1,256.4174,256.4174,88.7714,101.1836,1012.7,-3.4,-3.7,yes,yes,yes,300234066080130,unknown,unknown,unknown,North
2020-09-12T11:00:57Z,1599908458,2020,11,1,256.459,256.459,88.7718,101.0182,1012.6,-3.4,-4.1,yes,yes,yes,300234066080130,unknown,unknown,unknown,North
2020-09-12T12:01:00Z,1599912060,2020,12,1,256.5007,256.5007,88.7732,100.838,1012.3,-3.9,-5.7,yes,yes,yes,300234066080130,unknown,unknown,unknown,North
2020-09-12T13:01:03Z,1599915663,2020,13,1,256.5424,256.5424,88.7756,100.656,1012.3,-4.1,-5.4,yes,yes,yes,300234066080130,unknown,unknown,unknown,North
2020-09-12T14:00:57Z,1599919258,2020,14,1,256.584,256.584,88.7786,100.5072,1012.4,-4.3,-5.4,yes,yes,yes,300234066080130,unknown,unknown,unknown,North
2020-09-12T15:01:00Z,1599922860,2020,15,1,256.6257,256.6257,88.782,100.398,1012.7,-4.2,-5.0,yes,yes,yes,300234066080130,unknown,unknown,unknown,North
2020-09-12T16:01:03Z,1599926463,2020,16,1,256.6674,256.6674,88.7852,100.329,1012.8,-4.0,-4.6,yes,yes,yes,300234066080130,unknown,unknown,unknown,North
2020-09-12T17:00:57Z,1599930058,2020,17,1,256.709,256.709,88.788,100.2956,1012.8,-3.8,-4.4,yes,yes,yes,300234066080130,unknown,unknown,unknown,North
2020-09-12T18:01:00Z,1599933660,2020,18,1,256.7507,256.7507,88.7904,100.2778,1012.6,-3.8,-4.6,yes,yes,yes,300234066080130,unknown,unknown,unknown,North
2020-09-12T19:01:03Z,1599937263,2020,19,1,256.7924,256.7924,88.792,100.2516,1012.2,-3.9,-4.5,yes,yes,yes,300234066080130,unknown,unknown,unknown,North
2020-09-12T20:00:57Z,1599940858,2020,20,1,256.834,256.834,88.7932,100.1936,1011.9,-4.1,-5.4,yes,yes,yes,300234066080130,unknown,unknown,unknown,North
2020-09-12T21:01:00Z,1599944460,2020,21,1,256.8757,256.8757,88.7944,100.0892,1011.5,-4.8,-6.5,yes,yes,yes,300234066080130,unknown,unknown,unknown,North
2020-09-12T22:01:03Z,1599948063,2020,22,1,256.9174,256.9174,88.796,99.9352,1011.4,-5.3,-7.1,yes,yes,yes,300234066080130,unknown,unknown,unknown,North
2020-09-12T23:00:57Z,1599951658,2020,23,1,256.959,256.959,88.7984,99.733,1011.6,-5.4,-6.8,yes,yes,yes,300234066080130,unknown,unknown,unknown,North
2020-09-13T00:01:00Z,1599955260,2020,0,1,257.0007,257.0007,88.8018,99.4982,1011.3,-5.6,-7.1,yes,yes,yes,300234066080130,unknown,unknown,unknown,North
2020-09-13T01:01:03Z,1599958863,2020,1,1,257.0424,257.0424,88.8068,99.243,1010.9,-5.7,-6.5,yes,yes,yes,300234066080130,unknown,unknown,unknown,North
2020-09-13T02:00:57Z,1599962458,2020,2,1,257.084,257.084,88.813,99.0014,1010.5,-5.3,-5.4,yes,yes,yes,300234066080130,unknown,unknown,unknown,North
2020-09-13T03:01:00Z,1599966060,2020,3,1,257.1257,257.1257,88.8198,98.7804,1010.1,-4.7,-4.2,yes,yes,yes,300234066080130,unknown,unknown,unknown,North
2020-09-13T04:01:03Z,1599969663,2020,4,1,257.1674,257.1674,88.8268,98.5828,1009.1,-4.1,-3.6,yes,yes,yes,300234066080130,unknown,unknown,unknown,North
2020-09-13T05:00:57Z,1599973258,2020,5,1,257.209,257.209,88.834,98.3936,1008.1,-3.6,-3.1,yes,yes,yes,300234066080130,unknown,unknown,unknown,North
2020-09-13T06:01:00Z,1599976860,2020,6,1,257.2507,257.2507,88.841,98.2026,1007.2,-3.1,-2.3,yes,yes,yes,300234066080130,unknown,unknown,unknown,North
2020-09-13T07:01:03Z,1599980463,2020,7,1,257.2924,257.2924,88.8476,97.9728,1005.9,-2.7,-1.7,yes,yes,yes,300234066080130,unknown,unknown,unknown,North
2020-09-13T08:00:57Z,1599984058,2020,8,1,257.334,257.334,88.8536,97.6804,1004.5,-2.2,-1.2,yes,yes,yes,300234066080130,unknown,unknown,unknown,North
2020-09-13T09:01:00Z,1599987660,2020,9,1,257.3757,257.3757,88.8596,97.3108,1003.0,-1.5,0.0,yes,yes,yes,300234066080130,unknown,unknown,unknown,North
2020-09-13T10:01:03Z,1599991263,2020,10,1,257.4174,257.4174,88.866,96.8626,1001.1,-0.5,1.0,yes,yes,yes,300234066080130,unknown,unknown,unknown,North
2020-09-13T11:00:57Z,1599994858,2020,11,1,257.459,257.459,88.8752,96.3996,999.5,0.0,1.6,yes,yes,yes,300234066080130,unknown,unknown,unknown,North
2020-09-13T12:01:00Z,1599998460,2020,12,1,257.5007,257.5007,88.887,96.0412,997.9,0.4,1.6,yes,yes,yes,300234066080130,unknown,unknown,unknown,North
2020-09-13T13:01:03Z,1600002063,2020,13,1,257.5424,257.5424,88.8994,95.813,996.6,0.7,1.6,yes,yes,yes,300234066080130,unknown,unknown,unknown,North
2020-09-13T14:00:57Z,1600005658,2020,14,1,257.584,257.584,88.9114,95.7298,995.3,0.9,1.6,yes,yes,yes,300234066080130,unknown,unknown,unknown,North
2020-09-13T15:01:00Z,1600009260,2020,15,1,257.6257,257.6257,88.922,95.7746,994.2,1.0,1.5,yes,yes,yes,300234066080130,unknown,unknown,unknown,North
2020-09-13T16:01:03Z,1600012863,2020,16,1,257.6674,257.6674,88.9308,95.9328,993.1,1.0,1.5,yes,yes,yes,300234066080130,unknown,unknown,unknown,North
2020-09-13T17:00:57Z,1600016458,2020,17,1,257.709,257.709,88.937,96.1452,992.1,1.0,1.4,yes,yes,yes,300234066080130,unknown,unknown,unknown,North
2020-09-13T18:01:00Z,1600020060,2020,18,1,257.7507,257.7507,88.9404,96.3272,991.0,1.1,1.5,yes,yes,yes,300234066080130,unknown,unknown,unknown,North
2020-09-13T19:01:03Z,1600023663,2020,19,1,257.7924,257.7924,88.9428,96.4148,990.3,1.1,1.5,yes,yes,yes,300234066080130,unknown,unknown,unknown,North
2020-09-13T20:00:57Z,1600027258,2020,20,1,257.834,257.834,88.9458,96.4332,989.7,1.1,1.3,yes,yes,yes,300234066080130,unknown,unknown,unknown,North
2020-09-13T21:02:00Z,1600030921,2020,21,2,257.8764,257.8764,88.9502,96.3884,989.3,1.2,1.3,yes,yes,yes,300234066080130,unknown,unknown,unknown,North
2020-09-13T22:01:03Z,1600034463,2020,22,1,257.9174,257.9174,88.9556,96.3068,988.9,1.1,1.2,yes,yes,yes,300234066080130,unknown,unknown,unknown,North
2020-09-13T23:00:57Z,1600038058,2020,23,1,257.959,257.959,88.9634,96.2912,988.8,1.1,1.3,yes,yes,yes,300234066080130,unknown,unknown,unknown,North
2020-09-14T00:02:00Z,1600041721,2020,0,2,258.0014,258.0014,88.9726,96.4552,989.1,1.2,1.3,yes,yes,yes,300234066080130,unknown,unknown,unknown,North
2020-09-14T01:01:03Z,1600045263,2020,1,1,258.0424,258.0424,88.9816,96.77,989.4,1.1,1.3,yes,yes,yes,300234066080130,unknown,unknown,unknown,North
2020-09-14T02:00:57Z,1600048858,2020,2,1,258.084,258.084,88.99,97.2384,990.0,1.1,1.3,yes,yes,yes,300234066080130,unknown,unknown,unknown,North
2020-09-14T03:01:00Z,1600052460,2020,3,1,258.1257,258.1257,88.9976,97.8944,990.7,1.2,1.3,yes,yes,yes,300234066080130,unknown,unknown,unknown,North
2020-09-14T04:01:03Z,1600056063,2020,4,1,258.1674,258.1674,89.0026,98.6402,991.6,1.2,1.3,yes,yes,yes,300234066080130,unknown,unknown,unknown,North
2020-09-14T05:00:57Z,1600059658,2020,5,1,258.209,258.209,89.0054,99.4266,992.3,1.2,1.3,yes,yes,yes,300234066080130,unknown,unknown,unknown,North